Regional Weather Roundup
Issued by NWS Boston, MA

Current Version | Previous Version | Text Only | Print | Product List | Glossary Off
Versions: 1 2 3 4 5 6 7 8 9 10 11 12 13 14 15 16 17 18 19 20 21 22 23 24 25 26 27 28 29 30 31 32 33 34 35 36 37 38 39 40 41 42 43 44 45 46 47 48 49 50

339
ASUS41 KBOX 310610
RWRBOX

REGIONAL WEATHER ROUNDUP
NATIONAL WEATHER SERVICE TAUNTON MA
200 AM EDT TUE MAY 31 2016

NOTE:  "FAIR" INDICATES FEW OR NO CLOUDS BELOW 12,000 FEET WITH NO
SIGNIFICANT WEATHER AND/OR OBSTRUCTIONS TO VISIBILITY.  THE FOLLOWING
OBSERVATION LOCATIONS DO NOT REPORT PRESENT WEATHER...PROVINCETOWN...
SMITHFIELD...BLOCK ISLAND...KEENE...AND OXFORD.

MAZALL-310700-
EASTERN MASSACHUSETTS

CITY           SKY/WX    TMP DP  RH WIND       PRES   REMARKS
BOSTON         MOCLDY    68  66  93 SW9       29.87F
6HR MIN TEMP:  68; 6HR MAX TEMP:  70;

BEVERLY        CLOUDY    70  66  87 SW7       29.86S
LAWRENCE       MOCLDY    69  65  86 SW6       29.88S
BEDFORD        MOCLDY    70  67  90 SW5       29.87S
BLUE HILL        N/A     67  66  97 SW16G22   29.89F
NORWOOD        CLOUDY    71  67  87 SW8       29.88F
MARSHFIELD     MOCLDY    70  70 100 SW9       29.88F
PLYMOUTH       CLOUDY    68  67  96 SW8       29.91F
TAUNTON        CLOUDY    70  66  87 VRB6      29.91R
NEW BEDFORD    CLOUDY    64  62  93 SW9       29.91F
$$

MAZALL-310700-
CAPE COD AND THE ISLANDS

CITY           SKY/WX    TMP DP  RH WIND       PRES   REMARKS
FALMOUTH       CLOUDY    63  63 100 SW12G17   29.93S
HYANNIS        LGT RAIN  64  63  96 SW12      29.92S
CHATHAM        LGT RAIN  61  61 100 SW9G20    29.94S FOG
PROVINCETOWN   LGT RAIN  62  61  96 SW13      29.91S
NANTUCKET      LGT RAIN  62  60  93 SW10      29.95S VSB 3/4
MARTHAS VNYRD  LGT RAIN  63  62  97 SW12      29.94S FOG
$$

MAZALL-310700-
CENTRAL AND WESTERN MASSACHUSETTS

CITY           SKY/WX    TMP DP  RH WIND       PRES   REMARKS
WORCESTER      CLOUDY    68  65  90 SW14      29.92
6HR MIN TEMP:  67; 6HR MAX TEMP:  70;

FITCHBURG      CLOUDY    72  65  78 W6        29.89F
ORANGE         PTCLDY    63  62  97 CALM      29.91S
SPRINGFIELD    NOT AVBL
WESTFIELD      CLOUDY    67  65  93 CALM      29.90F
NORTH ADAMS    NOT AVBL
PITTSFIELD     FOG       60  59  96 CALM      29.93F VSB 3/4
$$

RIZALL-310700-
RHODE ISLAND

CITY           SKY/WX    TMP DP  RH WIND       PRES   REMARKS
PROVIDENCE     CLOUDY    70  66  87 S6        29.92S
6HR MIN TEMP:  70; 6HR MAX TEMP:  71;

NEWPORT        CLOUDY    63  63 100 CALM      29.93S
BLOCK ISLAND   LGT RAIN  61  61 100 SW14      29.95S FOG
SMITHFIELD     CLOUDY   N/A N/A N/A SW5       29.91F
WESTERLY       CLOUDY    66  62  87 SW8       29.93F
$$

CTZALL-310700-
CONNECTICUT

CITY           SKY/WX    TMP DP  RH WIND       PRES   REMARKS
BRADLEY INTL   CLOUDY    71  68  90 S7        29.89F
6HR MIN TEMP:  71; 6HR MAX TEMP:  74;

HARTFORD       CLOUDY    73  68  84 S8        29.90F
BRIDGEPORT     CLOUDY    68  65  90 SW5       29.92F
DANBURY        MOCLDY    70  67  90 SW3       29.94S
GROTON         CLOUDY    67  66  97 W8        29.92F
NEW HAVEN      CLOUDY    67  65  93 S5        29.92F
CHESTER        CLOUDY    68  66  94 VRB7      29.93F
MERIDEN        CLOUDY    71  67  87 S7        29.92F
WILLIMANTIC    CLOUDY    72  67  84 SW7       29.92S
OXFORD           N/A     70  64  83 SW3       29.95S
$$

MEZ002-015-021-024-NHZ003-005-008-011-012-014-VTZ005-008-310700-
NORTHERN NEW ENGLAND

CITY           SKY/WX    TMP DP  RH WIND       PRES   REMARKS
PORTLAND ME    CLOUDY    66  64  93 SW5       29.82F
6HR MIN TEMP:  59; 6HR MAX TEMP:  67;

BANGOR ME      FOG       61  58  90 S6        29.80S VSB 1/2
CONCORD NH     CLOUDY    68  65  90 CALM      29.86S
MANCHESTER NH  CLOUDY    71  64  78 SW6       29.86R
NASHUA NH      MOCLDY    69  64  84 W3        29.88S
PORTSMOUTH NH  NOT AVBL
JAFFREY NH     CLOUDY    65  61  87 S5        29.92S
KEENE NH       CLOUDY   N/A N/A N/A CALM      29.90S
BURLINGTON VT  MOCLDY    68  54  60 W3        29.86S
MT. WASHINGTON FOG       45  45 100 W55         N/A  VSB 1/16WCI  32
$$

NYZ052-076-310700-
EASTERN NEW YORK

CITY           SKY/WX    TMP DP  RH WIND       PRES   REMARKS
ALBANY         CLOUDY    66  63  90 CALM      29.92S
6HR MIN TEMP:  64; 6HR MAX TEMP:  71; 6HR PCP: TRACE;

NEW YORK CITY  CLOUDY    74  72  93 SW7       29.92F
6HR MIN TEMP:  74; 6HR MAX TEMP:  76;

$$

ANZALL-310700-
MARINE OBSERVATIONS

STATION/POSITION TIME  TEMP    WIND        PRES    VSBY  WAVE
                       AIR SEA DIR/SP/G                  HT/PER
                 (UTC) (F)     (DEG/KT/KT) (MB)    (MI)  (FT/S)
BOSTON BUOY      0550   63 57  220/  8/ 10 1011.8F         1/ 7
BUZZARDS BAY     0600   60     220/ 17/ 18 1013.9F
NANTUCKET SOUND  0550   62 59  240/ 14/ 16 1013.6S         2/ 3
MASS BAY-STELLWA 0504   60 57                N/A    1 7/8  2/ 5
ISLE OF SHOALS   0600   70     230/ 17/ 17 1010.3F
S OF BLOCK IS    0525      58                N/A           4/ 7
$$

......................KEY.........................
  SKY/WX - SKY CONDITION/PRESENT WEATHER
  TMP    - TEMPERATURE IN FAHRENHEIT
  DWPT   - DEWPOINT IN FAHRENHEIT
  RH     - RELATIVE HUMIDITY IN PERCENT
  WIND   - DIRECTION AND SPEED IN MPH
  PRES   - MEAN SEA LEVEL PRESSURE IN INCHES OF HG
  WCI    - WIND CHILL INDEX
  VSB    - VISIBILITY IN MILES
  HX     - HEAT INDEX
  TC     - TEMPERATURE IN CELSIUS
  VRB    - VARIABLE WIND DIRECTION
  N/A    - NOT AVAILABLE




USA.gov is the U.S. government's official web portal to all federal, state and local government web resources and services.